TimeCDT,TemperatureF,Dew PointF,Humidity,Sea Level PressureIn,VisibilityMPH,Wind Direction,Wind SpeedMPH,Gust SpeedMPH,PrecipitationIn,Events,Conditions,WindDirDegrees,DateUTC
12:55 AM,46.9,28.0,48,30.13,10.0,East,11.5,-,N/A,,Clear,100,2013-05-27 05:55:00
1:55 AM,45.0,28.9,53,30.14,10.0,East,10.4,-,N/A,,Clear,100,2013-05-27 06:55:00
2:55 AM,44.1,28.9,55,30.12,10.0,East,5.8,-,N/A,,Partly Cloudy,90,2013-05-27 07:55:00
3:55 AM,43.0,30.0,60,30.12,10.0,East,6.9,-,N/A,,Partly Cloudy,90,2013-05-27 08:55:00
4:55 AM,43.0,30.9,62,30.10,10.0,East,4.6,-,N/A,,Partly Cloudy,90,2013-05-27 09:55:00
5:55 AM,43.0,33.1,68,30.12,10.0,East,6.9,-,N/A,,Partly Cloudy,90,2013-05-27 10:55:00
6:55 AM,48.0,35.1,61,30.12,10.0,East,8.1,-,N/A,,Partly Cloudy,90,2013-05-27 11:55:00
7:55 AM,51.1,36.0,56,30.12,10.0,East,9.2,-,N/A,,Partly Cloudy,90,2013-05-27 12:55:00
8:18 AM,50.0,35.6,58,30.08,10.0,East,12.7,-,N/A,,Mostly Cloudy,80,2013-05-27 13:18:00
8:25 AM,51.8,35.6,54,30.08,10.0,East,12.7,-,N/A,,Overcast,90,2013-05-27 13:25:00
8:55 AM,52.0,37.0,57,30.10,10.0,East,10.4,-,N/A,,Mostly Cloudy,90,2013-05-27 13:55:00
9:55 AM,54.0,37.0,53,30.08,10.0,East,15.0,-,N/A,,Overcast,90,2013-05-27 14:55:00
10:55 AM,57.0,37.0,47,30.06,10.0,East,12.7,-,N/A,,Overcast,90,2013-05-27 15:55:00
11:55 AM,57.0,37.0,47,30.04,10.0,East,17.3,23.0,N/A,,Overcast,100,2013-05-27 16:55:00
12:55 PM,60.1,36.0,41,30.01,10.0,East,20.7,27.6,N/A,,Overcast,90,2013-05-27 17:55:00
1:55 PM,62.1,36.0,38,29.99,10.0,ENE,17.3,23.0,N/A,,Mostly Cloudy,70,2013-05-27 18:55:00
2:55 PM,64.0,36.0,35,29.99,10.0,ENE,13.8,-,N/A,,Mostly Cloudy,70,2013-05-27 19:55:00
3:55 PM,62.1,34.0,35,29.99,10.0,East,16.1,-,N/A,,Mostly Cloudy,80,2013-05-27 20:55:00
4:55 PM,63.0,34.0,34,29.97,10.0,East,15.0,-,N/A,,Mostly Cloudy,90,2013-05-27 21:55:00
5:55 PM,63.0,34.0,34,29.97,10.0,East,16.1,23.0,N/A,,Scattered Clouds,90,2013-05-27 22:55:00
6:55 PM,59.0,33.1,38,29.94,10.0,East,16.1,-,N/A,,Mostly Cloudy,80,2013-05-27 23:55:00
7:55 PM,59.0,34.0,39,29.93,10.0,ENE,12.7,-,N/A,,Mostly Cloudy,70,2013-05-28 00:55:00
8:55 PM,57.0,35.1,44,29.93,10.0,East,8.1,-,N/A,,Mostly Cloudy,90,2013-05-28 01:55:00
9:55 PM,55.9,35.1,45,29.94,10.0,East,6.9,-,N/A,,Mostly Cloudy,100,2013-05-28 02:55:00
10:55 PM,52.0,35.1,53,29.94,10.0,East,9.2,-,N/A,,Overcast,100,2013-05-28 03:55:00
11:55 PM,48.0,34.0,58,29.93,10.0,East,8.1,-,N/A,,Overcast,100,2013-05-28 04:55:00